{"data":{"norad_id":47843,"epoch":"2026-09-20T01:03:36.846144Z","epoch_age_seconds":68548,"freshness":"FRESH","line1":"1 47843U 21018BJ  26263.04417646 -.00001439  00000+0 -34634-4 0  9991","line2":"2 47843  53.1586  70.8067 0000837  67.6874 292.4216 15.31700307306349","mean_motion":15.31700307,"eccentricity":8.37e-5,"inclination_deg":53.1586,"raan_deg":70.8067,"arg_perigee_deg":67.6874,"mean_anomaly_deg":292.4216,"bstar":-3.4634e-5,"rev_number":30634,"period_min":94.013169117945,"perigee_km":470.16582914687,"apogee_km":471.31233100268,"semimajor_km":6848.8760800748,"source":"CELESTRAK","updated_at":"2026-09-20T09:00:38.753759Z"}}